TimeMST,TemperatureF,Dew PointF,Humidity,Sea Level PressureIn,VisibilityMPH,Wind Direction,Wind SpeedMPH,Gust SpeedMPH,PrecipitationIn,Events,Conditions,WindDirDegrees,DateUTC
12:15 AM,36.7,8.8,31,30.09,10.0,WNW,4.6,-,N/A,,Clear,300,2013-03-08 07:15:00
12:35 AM,35.8,9.3,33,30.08,10.0,NW,4.6,-,N/A,,Clear,310,2013-03-08 07:35:00
12:55 AM,33.6,10.0,38,30.08,10.0,West,3.5,-,N/A,,Clear,270,2013-03-08 07:55:00
1:15 AM,34.3,10.2,37,30.08,10.0,NW,3.5,-,N/A,,Clear,320,2013-03-08 08:15:00
1:35 AM,33.6,10.8,39,30.07,10.0,North,3.5,-,N/A,,Clear,350,2013-03-08 08:35:00
1:55 AM,33.8,10.9,39,30.08,10.0,NNW,6.9,-,N/A,,Clear,340,2013-03-08 08:55:00
2:15 AM,33.3,11.1,40,30.07,10.0,NNW,5.8,-,N/A,,Clear,330,2013-03-08 09:15:00
2:35 AM,31.5,11.1,43,30.07,10.0,Calm,Calm,-,N/A,,Clear,0,2013-03-08 09:35:00
2:55 AM,31.6,11.7,44,30.06,10.0,West,4.6,-,N/A,,Clear,270,2013-03-08 09:55:00
3:15 AM,31.3,12.0,45,30.06,10.0,NNW,5.8,-,N/A,,Scattered Clouds,340,2013-03-08 10:15:00
3:35 AM,30.4,12.0,47,30.05,10.0,NNW,3.5,-,N/A,,Scattered Clouds,330,2013-03-08 10:35:00
3:55 AM,30.7,12.2,46,30.05,10.0,Calm,Calm,-,N/A,,Clear,0,2013-03-08 10:55:00
4:15 AM,28.6,12.2,50,30.06,10.0,Calm,Calm,-,N/A,,Scattered Clouds,0,2013-03-08 11:15:00
4:35 AM,29.8,12.4,48,30.06,10.0,WNW,3.5,-,N/A,,Scattered Clouds,290,2013-03-08 11:35:00
4:55 AM,28.9,12.2,50,30.05,10.0,North,5.8,-,N/A,,Clear,350,2013-03-08 11:55:00
5:15 AM,30.0,12.2,48,30.06,10.0,Calm,Calm,-,N/A,,Clear,0,2013-03-08 12:15:00
5:35 AM,29.3,12.7,50,30.06,10.0,Calm,Calm,-,N/A,,Clear,0,2013-03-08 12:35:00
5:55 AM,29.3,12.9,51,30.06,10.0,Calm,Calm,-,N/A,,Clear,0,2013-03-08 12:55:00
6:15 AM,29.3,12.9,51,30.06,10.0,NNW,3.5,-,N/A,,Clear,330,2013-03-08 13:15:00
6:35 AM,29.3,13.1,51,30.06,10.0,Calm,Calm,-,N/A,,Clear,0,2013-03-08 13:35:00
6:55 AM,29.3,12.9,51,30.06,10.0,Calm,Calm,-,N/A,,Clear,0,2013-03-08 13:55:00
7:15 AM,30.0,12.9,49,30.05,10.0,Calm,Calm,-,N/A,,Clear,0,2013-03-08 14:15:00
7:35 AM,31.1,13.5,48,30.05,10.0,Calm,Calm,-,N/A,,Clear,0,2013-03-08 14:35:00
7:55 AM,31.8,13.6,47,30.05,10.0,Calm,Calm,-,N/A,,Scattered Clouds,0,2013-03-08 14:55:00
8:15 AM,33.6,13.8,44,30.05,10.0,NW,4.6,-,N/A,,Scattered Clouds,310,2013-03-08 15:15:00
8:35 AM,34.9,13.8,42,30.04,10.0,NNW,6.9,-,N/A,,Clear,340,2013-03-08 15:35:00
8:55 AM,34.3,14.2,44,30.03,10.0,NW,3.5,-,N/A,,Clear,310,2013-03-08 15:55:00
9:15 AM,37.6,14.2,38,30.02,10.0,NNW,5.8,-,N/A,,Scattered Clouds,340,2013-03-08 16:15:00
9:35 AM,38.5,14.4,37,30.01,10.0,North,3.5,-,N/A,,Scattered Clouds,10,2013-03-08 16:35:00
9:55 AM,39.9,13.6,34,30.00,10.0,Calm,Calm,-,N/A,,Clear,0,2013-03-08 16:55:00
10:15 AM,44.1,14.5,30,29.98,10.0,North,5.8,-,N/A,,Clear,350,2013-03-08 17:15:00
10:35 AM,46.0,15.3,29,29.97,10.0,NNE,4.6,-,N/A,,Clear,20,2013-03-08 17:35:00
10:55 AM,48.2,15.6,27,29.95,10.0,Calm,Calm,-,N/A,,Clear,0,2013-03-08 17:55:00
11:15 AM,52.5,15.1,23,29.94,10.0,SE,8.1,-,N/A,,Mostly Cloudy,130,2013-03-08 18:15:00
11:35 AM,53.1,12.6,20,29.94,10.0,South,13.8,23.0,N/A,,Scattered Clouds,170,2013-03-08 18:35:00
11:55 AM,52.9,10.2,18,29.92,10.0,South,17.3,24.2,N/A,,Clear,170,2013-03-08 18:55:00
12:15 PM,53.1,11.3,19,29.91,10.0,SSE,16.1,27.6,N/A,,Clear,160,2013-03-08 19:15:00
12:35 PM,53.8,12.7,20,29.90,10.0,South,17.3,31.1,N/A,,Clear,170,2013-03-08 19:35:00
12:55 PM,53.8,14.7,21,29.88,10.0,SSE,15.0,33.4,N/A,,Clear,160,2013-03-08 19:55:00
1:15 PM,52.9,14.5,22,29.87,10.0,South,16.1,27.6,N/A,,Clear,180,2013-03-08 20:15:00
1:35 PM,52.7,14.0,22,29.85,10.0,South,18.4,32.2,N/A,,Clear,170,2013-03-08 20:35:00
1:55 PM,52.2,14.7,23,29.85,10.0,South,21.9,29.9,N/A,,Clear,190,2013-03-08 20:55:00
2:15 PM,51.6,18.1,27,29.85,10.0,South,19.6,29.9,N/A,,Clear,180,2013-03-08 21:15:00
2:35 PM,51.4,18.3,27,29.84,10.0,South,11.5,26.5,N/A,,Clear,170,2013-03-08 21:35:00
2:55 PM,52.2,17.4,25,29.83,10.0,South,13.8,20.7,N/A,,Clear,180,2013-03-08 21:55:00
3:15 PM,53.6,16.3,23,29.83,10.0,South,16.1,23.0,N/A,,Clear,180,2013-03-08 22:15:00
3:35 PM,52.0,16.0,24,29.82,10.0,South,11.5,21.9,N/A,,Mostly Cloudy,180,2013-03-08 22:35:00
3:55 PM,51.8,15.6,24,29.80,10.0,South,15.0,21.9,N/A,,Overcast,180,2013-03-08 22:55:00
4:15 PM,50.9,16.3,25,29.79,10.0,SE,9.2,19.6,N/A,,Overcast,140,2013-03-08 23:15:00
4:35 PM,50.2,17.6,28,29.80,10.0,SSE,15.0,31.1,N/A,,Mostly Cloudy,160,2013-03-08 23:35:00
4:55 PM,49.5,18.1,29,29.80,10.0,South,18.4,28.8,N/A,,Overcast,180,2013-03-08 23:55:00
5:15 PM,48.7,19.9,32,29.80,10.0,SSE,10.4,25.3,N/A,,Overcast,160,2013-03-09 00:15:00
5:35 PM,48.2,19.4,32,29.82,10.0,SSW,12.7,19.6,N/A,,Overcast,200,2013-03-09 00:35:00
5:55 PM,47.3,19.4,33,29.82,10.0,WSW,11.5,17.3,N/A,,Overcast,250,2013-03-09 00:55:00
6:15 PM,42.4,25.5,51,29.83,10.0,WSW,11.5,26.5,N/A,,Overcast,240,2013-03-09 01:15:00
6:35 PM,40.5,33.1,75,29.83,10.0,SSW,9.2,-,N/A,,Overcast,210,2013-03-09 01:35:00
6:55 PM,38.3,33.8,84,29.83,10.0,SW,9.2,-,N/A,,Overcast,230,2013-03-09 01:55:00
7:15 PM,37.4,33.8,87,29.83,7.0,WSW,5.8,-,N/A,,Overcast,240,2013-03-09 02:15:00
7:35 PM,35.8,33.8,92,29.83,7.0,SW,5.8,-,N/A,,Overcast,220,2013-03-09 02:35:00
7:55 PM,36.5,33.8,90,29.83,10.0,West,5.8,-,N/A,,Overcast,270,2013-03-09 02:55:00
8:15 PM,37.6,33.3,84,29.82,10.0,SW,6.9,-,N/A,,Overcast,230,2013-03-09 03:15:00
8:35 PM,36.3,34.5,93,29.82,10.0,Calm,Calm,-,N/A,,Overcast,0,2013-03-09 03:35:00
8:55 PM,36.5,34.2,91,29.82,10.0,SSE,4.6,-,N/A,,Overcast,160,2013-03-09 03:55:00
9:15 PM,36.0,34.3,94,29.81,10.0,SE,3.5,-,N/A,,Overcast,130,2013-03-09 04:15:00
9:35 PM,35.2,32.4,89,29.82,1.8,South,8.1,24.2,N/A,,Overcast,170,2013-03-09 04:35:00
9:55 PM,35.4,32.5,89,29.80,10.0,Calm,Calm,-,N/A,,Overcast,0,2013-03-09 04:55:00
10:15 PM,35.6,32.7,89,29.78,10.0,NW,3.5,-,N/A,,Overcast,320,2013-03-09 05:15:00
10:35 PM,34.7,32.4,91,29.76,10.0,Calm,Calm,-,N/A,,Scattered Clouds,0,2013-03-09 05:35:00
10:55 PM,33.8,32.0,93,29.76,10.0,Calm,Calm,-,N/A,,Clear,0,2013-03-09 05:55:00
11:15 PM,36.1,29.7,77,29.75,10.0,SE,9.2,-,N/A,,Clear,130,2013-03-09 06:15:00
11:35 PM,34.7,31.1,87,29.74,10.0,Calm,Calm,-,N/A,,Clear,0,2013-03-09 06:35:00
11:55 PM,36.1,30.2,79,29.75,10.0,NNW,5.8,-,N/A,,Clear,330,2013-03-09 06:55:00